星链-31573 (STARLINK-31573 )

导读

STARLINK-31573是美国SpaceX星链星座的卫星,于2024年3月25日发射升空,属于星链互联网卫星星座组网的一部分。星链项目旨在通过近地轨道卫星群,为全球提供高速互联网接入服务,该卫星的发射进一步扩充了星链星座的在轨规模,推进星座部署进程。

Basic Information
目录编号:
59334
目录名称:
STARLINK-31573
国际标识:
2024-057Q
轨道中心:
EARTH
卫星名称:
星链-31573
卫星全名:
星链-31573 (STARLINK-31573 )
卫星状态:
在轨 (已飞行815 天)
发射日期:
2024-03-25 UTC
国别 :
美国 (US)
星等 :
--
Orbit Information
数据来源 国际轨道数据
星历时间: 2026-06-17T12:56:07+0800
1天前
查看轨道信息
半长轴: 6861.182km
偏心率: 0.0002882
轨道倾角: 43.010°
近地点辐角 272.860°
升交点赤经 344.636°
平近点角 87.192°
近地点: 481.067km
远地点: 485.023km
周期: 94.267分钟
每日圈数: 15.275816
Detailed Information
固有亮度:
5
最大亮度:
0.3
卫星平台:
Starlink v2.0 mini
覆盖范围:
全球
运营商:
太空探索技术公司
运营商所在国:
美国
制造商(研发单位):
太空探索技术公司
制造商所在国:
美国
使用方式:
暂无
Satellite Introduction
星链(Starlink)计划是由太空探索技术公司(SpaceX)提出的一个巨型低轨卫星互联网星座项目,计划在2019年至2024年间在太空搭建由约1.2万颗卫星组成的“星链”网络,其中1584颗将部署在地球上空550千米处的近地轨道,并从2020年开始工作。该卫星仍在工作。
2D Orbit Map
3D Orbit Map
Orbit Altitude Analysis Chart
Orbit Inclination Analysis Chart
Orbit Comprehensive Analysis Chart
View Comprehensive Chart